N6KR KPWK-KTEB

Flight info

Callsign N6KR
Flight time 2h 15m
Altitude 29000
Route DUFEE LOGGR HAAKK DOXXY SOSIC JHW LVZ5
Aircraft SF50/L-SDGRWY/L

Departure

Time 2026-04-27 02:25
Airport Chicago Executive Airport (KPWK)

Arrival

Time 2026-04-27 04:40
Airport Teterboro Airport (KTEB)
Time Latitude Longitude Altitude Speed Heading
2026-04-27 02:05 42.11946 -87.90733 643 ft 0 kts 70°
2026-04-27 02:18 42.11946 -87.90731 643 ft 0 kts 44°
2026-04-27 02:18 42.11951 -87.90741 643 ft 1 kts 280°
2026-04-27 02:22 42.11988 -87.90766 643 ft 14 kts 340°
2026-04-27 02:22 42.12102 -87.90755 645 ft 17 kts 351°
2026-04-27 02:23 42.12237 -87.90821 650 ft 24 kts 337°
2026-04-27 02:23 42.12304 -87.90796 651 ft 0 kts 78°
2026-04-27 02:24 42.12306 -87.90713 651 ft 16 kts 118°
2026-04-27 02:24 42.12125 -87.90602 648 ft 54 kts 155°
2026-04-27 02:24 42.11581 -87.90320 671 ft 106 kts 160°
2026-04-27 02:24 42.10892 -87.89932 1068 ft 106 kts 136°
2026-04-27 02:25 42.10349 -87.89253 1565 ft 110 kts 140°
2026-04-27 02:25 42.09658 -87.88687 1895 ft 126 kts 140°
2026-04-27 02:25 42.08941 -87.87811 2016 ft 151 kts 136°
2026-04-27 02:25 42.08193 -87.86866 2496 ft 144 kts 136°
2026-04-27 02:26 42.07452 -87.85951 2921 ft 146 kts 136°
2026-04-27 02:26 42.06712 -87.85027 3351 ft 146 kts 136°
2026-04-27 02:26 42.05968 -87.84064 3739 ft 149 kts 136°
2026-04-27 02:26 42.05226 -87.83067 4126 ft 151 kts 136°
2026-04-27 02:27 42.04492 -87.82041 4506 ft 154 kts 136°
2026-04-27 02:27 42.03926 -87.80808 4802 ft 165 kts 106°
2026-04-27 02:27 42.04001 -87.79206 5317 ft 176 kts 87°
2026-04-27 02:27 42.04194 -87.77599 5917 ft 175 kts 89°
2026-04-27 02:28 42.04354 -87.75932 6342 ft 182 kts 89°
2026-04-27 02:28 42.04528 -87.74236 6792 ft 184 kts 89°
2026-04-27 02:28 42.04701 -87.72521 7231 ft 186 kts 89°
2026-04-27 02:28 42.04879 -87.70784 7669 ft 188 kts 89°
2026-04-27 02:29 42.05057 -87.69023 8096 ft 191 kts 90°
2026-04-27 02:29 42.05239 -87.67241 8543 ft 193 kts 90°
2026-04-27 02:29 42.05421 -87.65443 8992 ft 195 kts 90°
2026-04-27 02:29 42.05605 -87.63629 9444 ft 197 kts 90°
2026-04-27 02:30 42.05791 -87.61793 9899 ft 199 kts 90°
2026-04-27 02:30 42.05978 -87.59941 10326 ft 201 kts 90°
2026-04-27 02:30 42.06166 -87.58077 10743 ft 202 kts 90°
2026-04-27 02:30 42.06354 -87.56188 11161 ft 204 kts 89°
2026-04-27 02:31 42.06545 -87.54288 11582 ft 206 kts 89°
2026-04-27 02:31 42.06735 -87.52373 12001 ft 208 kts 89°
2026-04-27 02:31 42.06929 -87.50438 12425 ft 209 kts 89°
2026-04-27 02:31 42.07123 -87.48490 12846 ft 211 kts 89°
2026-04-27 02:32 42.07321 -87.46524 13271 ft 213 kts 88°
2026-04-27 02:32 42.07516 -87.44550 13687 ft 214 kts 88°
2026-04-27 02:32 42.07719 -87.42518 14082 ft 216 kts 88°
2026-04-27 02:32 42.07916 -87.40533 14440 ft 218 kts 88°
2026-04-27 02:33 42.08119 -87.38479 14807 ft 220 kts 88°
2026-04-27 02:33 42.08318 -87.36464 15165 ft 221 kts 88°
2026-04-27 02:33 42.08519 -87.34400 15524 ft 223 kts 87°
2026-04-27 02:33 42.08725 -87.32324 15867 ft 225 kts 87°
2026-04-27 02:34 42.08929 -87.30224 16205 ft 227 kts 87°
2026-04-27 02:34 42.09136 -87.28115 16561 ft 228 kts 86°
2026-04-27 02:34 42.09344 -87.25990 16902 ft 230 kts 86°
2026-04-27 02:34 42.09553 -87.23852 17262 ft 231 kts 86°
2026-04-27 02:35 42.09764 -87.21701 17603 ft 232 kts 86°
2026-04-27 02:35 42.09976 -87.19508 17947 ft 234 kts 86°
2026-04-27 02:35 42.10189 -87.17335 18289 ft 235 kts 86°
2026-04-27 02:35 42.10399 -87.15147 18588 ft 236 kts 86°
2026-04-27 02:36 42.10540 -87.13687 18786 ft 237 kts 85°
2026-04-27 02:36 42.10822 -87.10762 19167 ft 239 kts 85°
2026-04-27 02:36 42.11034 -87.08543 19454 ft 240 kts 85°
2026-04-27 02:36 42.11246 -87.06313 19736 ft 240 kts 87°
2026-04-27 02:37 42.11333 -87.04072 19998 ft 241 kts 90°
2026-04-27 02:37 42.11413 -87.01809 20282 ft 242 kts 90°
2026-04-27 02:37 42.11472 -87.00281 20467 ft 242 kts 90°
2026-04-27 02:37 42.11556 -86.98010 20739 ft 244 kts 90°
2026-04-27 02:38 42.11642 -86.95723 21013 ft 245 kts 90°
2026-04-27 02:38 42.11726 -86.93447 21298 ft 244 kts 89°
2026-04-27 02:38 42.11809 -86.91156 21598 ft 244 kts 89°
2026-04-27 02:38 42.11891 -86.88919 21894 ft 244 kts 89°
2026-04-27 02:39 42.11973 -86.86595 22203 ft 244 kts 89°
2026-04-27 02:39 42.12054 -86.84311 22510 ft 243 kts 89°
2026-04-27 02:39 42.12136 -86.82032 22813 ft 243 kts 89°
2026-04-27 02:39 42.12214 -86.79769 23112 ft 243 kts 89°
2026-04-27 02:40 42.12295 -86.77487 23412 ft 243 kts 89°
2026-04-27 02:40 42.12373 -86.75216 23704 ft 243 kts 89°
2026-04-27 02:40 42.12452 -86.72943 23947 ft 243 kts 89°
2026-04-27 02:40 42.12533 -86.70667 24188 ft 243 kts 89°
2026-04-27 02:41 42.12609 -86.68420 24435 ft 243 kts 89°
2026-04-27 02:41 42.12690 -86.66113 24685 ft 244 kts 88°
2026-04-27 02:41 42.12768 -86.63834 24934 ft 244 kts 88°
2026-04-27 02:41 42.12843 -86.61581 25185 ft 244 kts 88°
2026-04-27 02:42 42.12923 -86.59269 25444 ft 244 kts 88°
2026-04-27 02:42 42.12998 -86.56979 25700 ft 245 kts 88°
2026-04-27 02:42 42.13074 -86.54683 25957 ft 245 kts 87°
2026-04-27 02:42 42.13148 -86.52391 26218 ft 245 kts 87°
2026-04-27 02:43 42.13224 -86.50090 26483 ft 246 kts 87°
2026-04-27 02:43 42.13298 -86.47790 26748 ft 246 kts 87°
2026-04-27 02:43 42.13371 -86.45522 27012 ft 246 kts 86°
2026-04-27 02:43 42.13446 -86.43215 27281 ft 246 kts 86°
2026-04-27 02:44 42.13519 -86.40879 27553 ft 247 kts 86°
2026-04-27 02:44 42.13594 -86.38575 27826 ft 247 kts 86°
2026-04-27 02:44 42.13668 -86.36292 28090 ft 247 kts 86°
2026-04-27 02:44 42.13740 -86.33950 28363 ft 247 kts 86°
2026-04-27 02:45 42.13814 -86.31638 28631 ft 247 kts 85°
2026-04-27 02:45 42.13885 -86.29343 28874 ft 249 kts 85°
2026-04-27 02:45 42.13959 -86.26973 29095 ft 252 kts 85°
2026-04-27 02:45 42.14035 -86.24566 29102 ft 263 kts 85°
2026-04-27 02:46 42.14111 -86.22060 29106 ft 272 kts 86°
2026-04-27 02:46 42.14186 -86.19475 29102 ft 280 kts 86°
2026-04-27 02:46 42.14266 -86.16820 29107 ft 287 kts 85°
2026-04-27 02:46 42.14346 -86.14139 29111 ft 294 kts 85°
2026-04-27 02:47 42.14426 -86.11359 29110 ft 300 kts 85°
2026-04-27 02:47 42.14414 -86.08527 29109 ft 306 kts 89°
2026-04-27 02:47 42.14384 -86.02683 29110 ft 318 kts 88°
2026-04-27 02:48 42.14345 -85.96608 29114 ft 327 kts 88°
2026-04-27 02:48 42.14302 -85.90407 29120 ft 334 kts 89°
2026-04-27 02:49 42.14254 -85.84098 29129 ft 340 kts 89°
2026-04-27 02:49 42.14201 -85.77750 29135 ft 342 kts 89°
2026-04-27 02:50 42.14145 -85.71297 29144 ft 342 kts 89°
2026-04-27 02:50 42.14086 -85.64936 29146 ft 342 kts 89°
2026-04-27 02:51 42.14022 -85.58548 29147 ft 341 kts 89°
2026-04-27 02:51 42.13957 -85.52143 29149 ft 341 kts 89°
2026-04-27 02:52 42.13887 -85.45756 29143 ft 341 kts 89°
2026-04-27 02:52 42.13815 -85.39369 29151 ft 340 kts 88°
2026-04-27 02:53 42.13739 -85.33040 29146 ft 338 kts 88°
2026-04-27 02:53 42.13658 -85.26710 29158 ft 338 kts 88°
2026-04-27 02:54 42.13574 -85.20366 29162 ft 339 kts 88°
2026-04-27 02:54 42.13487 -85.14010 29163 ft 340 kts 88°
2026-04-27 02:55 42.13397 -85.07628 29163 ft 341 kts 89°
2026-04-27 02:55 42.13302 -85.01267 29163 ft 336 kts 88°
2026-04-27 02:56 42.13189 -84.94994 29160 ft 334 kts 88°
2026-04-27 02:56 42.13079 -84.88729 29161 ft 335 kts 88°
2026-04-27 02:57 42.12962 -84.82453 29162 ft 335 kts 88°
2026-04-27 02:57 42.12843 -84.76181 29175 ft 336 kts 88°
2026-04-27 02:58 42.12718 -84.69878 29176 ft 336 kts 88°
2026-04-27 02:58 42.12593 -84.63597 29185 ft 333 kts 88°
2026-04-27 02:59 42.12465 -84.57401 29180 ft 331 kts 88°
2026-04-27 02:59 42.12334 -84.51195 29182 ft 332 kts 88°
2026-04-27 03:00 42.12514 -84.45021 29175 ft 328 kts 76°
2026-04-27 03:00 42.13208 -84.38932 29179 ft 329 kts 77°
2026-04-27 03:01 42.13893 -84.32822 29191 ft 330 kts 77°
2026-04-27 03:01 42.14576 -84.26715 29194 ft 330 kts 77°
2026-04-27 03:02 42.15251 -84.20657 29198 ft 329 kts 77°
2026-04-27 03:02 42.15932 -84.14513 29198 ft 329 kts 77°
2026-04-27 03:03 42.16939 -84.05380 29197 ft 328 kts 77°
2026-04-27 03:04 42.17606 -83.99296 29192 ft 328 kts 77°
2026-04-27 03:04 42.18269 -83.93216 29192 ft 328 kts 77°
2026-04-27 03:04 42.18462 -83.90155 28943 ft 335 kts 95°
2026-04-27 03:05 42.17473 -83.87413 29468 ft 299 kts 131°
2026-04-27 03:05 42.15941 -83.85786 29396 ft 280 kts 155°
2026-04-27 03:05 42.14334 -83.84301 29184 ft 281 kts 137°
2026-04-27 03:05 42.13196 -83.82123 29183 ft 289 kts 113°
2026-04-27 03:06 42.12691 -83.79505 29193 ft 290 kts 91°
2026-04-27 03:06 42.12894 -83.76829 29198 ft 287 kts 69°
2026-04-27 03:06 42.13773 -83.74448 29197 ft 283 kts 47°
2026-04-27 03:06 42.15153 -83.72596 29202 ft 282 kts 33°
2026-04-27 03:07 42.16710 -83.70943 29196 ft 287 kts 32°
2026-04-27 03:07 42.18236 -83.69158 29197 ft 295 kts 38°
2026-04-27 03:07 42.19609 -83.67063 29209 ft 303 kts 47°
2026-04-27 03:08 42.21682 -83.61966 29219 ft 319 kts 66°
2026-04-27 03:08 42.22155 -83.59007 29217 ft 326 kts 79°
2026-04-27 03:08 42.22366 -83.55941 29220 ft 330 kts 82°
2026-04-27 03:09 42.22849 -83.49767 29218 ft 330 kts 77°
2026-04-27 03:09 42.23021 -83.43551 29214 ft 333 kts 85°
2026-04-27 03:10 42.23082 -83.37300 29212 ft 333 kts 86°
2026-04-27 03:10 42.23133 -83.31048 29212 ft 333 kts 85°
2026-04-27 03:11 42.23181 -83.24792 29215 ft 333 kts 86°
2026-04-27 03:11 42.23228 -83.18535 29215 ft 333 kts 86°
2026-04-27 03:12 42.23269 -83.12280 29231 ft 334 kts 86°
2026-04-27 03:12 42.23306 -83.06030 29232 ft 333 kts 86°
2026-04-27 03:13 42.23340 -82.99773 29235 ft 333 kts 86°
2026-04-27 03:13 42.23371 -82.93536 29234 ft 333 kts 86°
2026-04-27 03:14 42.23400 -82.87287 29231 ft 332 kts 86°
2026-04-27 03:14 42.23425 -82.81065 29230 ft 332 kts 86°
2026-04-27 03:15 42.23446 -82.74827 29231 ft 333 kts 86°
2026-04-27 03:15 42.23465 -82.68566 29233 ft 335 kts 86°
2026-04-27 03:16 42.23479 -82.62268 29232 ft 336 kts 86°
2026-04-27 03:16 42.23488 -82.55966 29231 ft 335 kts 86°
2026-04-27 03:17 42.23496 -82.49706 29226 ft 333 kts 86°
2026-04-27 03:17 42.23499 -82.44532 29226 ft 329 kts 86°
2026-04-27 03:18 42.23503 -82.38307 29229 ft 334 kts 86°
2026-04-27 03:18 42.23500 -82.32001 29235 ft 336 kts 86°
2026-04-27 03:19 42.23495 -82.25706 29235 ft 335 kts 86°
2026-04-27 03:19 42.23487 -82.19427 29235 ft 334 kts 86°
2026-04-27 03:20 42.23472 -82.13175 29231 ft 333 kts 86°
2026-04-27 03:20 42.23458 -82.06933 29231 ft 332 kts 86°
2026-04-27 03:21 42.23437 -82.00695 29233 ft 333 kts 86°
2026-04-27 03:21 42.23414 -81.94433 29235 ft 335 kts 86°
2026-04-27 03:22 42.23391 -81.88134 29232 ft 336 kts 86°
2026-04-27 03:22 42.23361 -81.81823 29233 ft 336 kts 86°
2026-04-27 03:23 42.23328 -81.75541 29234 ft 334 kts 86°
2026-04-27 03:23 42.23292 -81.69278 29232 ft 333 kts 86°
2026-04-27 03:24 42.23252 -81.63036 29237 ft 333 kts 86°
2026-04-27 03:24 42.23208 -81.56763 29236 ft 335 kts 86°
2026-04-27 03:25 42.23161 -81.50458 29240 ft 337 kts 86°
2026-04-27 03:25 42.23112 -81.44145 29241 ft 336 kts 86°
2026-04-27 03:26 42.23058 -81.37861 29242 ft 334 kts 86°
2026-04-27 03:26 42.23002 -81.31603 29241 ft 333 kts 86°
2026-04-27 03:27 42.22943 -81.25363 29235 ft 335 kts 86°
2026-04-27 03:27 42.22877 -81.19045 29242 ft 338 kts 86°
2026-04-27 03:28 42.22809 -81.12732 29239 ft 336 kts 86°
2026-04-27 03:28 42.22738 -81.06441 29238 ft 334 kts 86°
2026-04-27 03:29 42.22664 -81.00183 29234 ft 333 kts 86°
2026-04-27 03:29 42.22589 -80.93934 29233 ft 334 kts 86°
2026-04-27 03:30 42.22509 -80.87644 29236 ft 337 kts 86°
2026-04-27 03:30 42.22422 -80.81297 29240 ft 339 kts 86°
2026-04-27 03:31 42.22333 -80.74962 29233 ft 337 kts 86°
2026-04-27 03:31 42.22240 -80.68665 29198 ft 332 kts 86°
2026-04-27 03:32 42.22148 -80.62488 29117 ft 329 kts 86°
2026-04-27 03:32 42.22051 -80.56296 29015 ft 331 kts 86°
2026-04-27 03:33 42.21952 -80.50069 28911 ft 333 kts 86°
2026-04-27 03:33 42.21848 -80.43805 28795 ft 334 kts 86°
2026-04-27 03:34 42.21740 -80.37562 28667 ft 332 kts 86°
2026-04-27 03:34 42.21629 -80.31344 28533 ft 331 kts 86°
2026-04-27 03:35 42.21516 -80.25148 28401 ft 330 kts 86°
2026-04-27 03:35 42.21400 -80.18958 28270 ft 331 kts 86°
2026-04-27 03:36 42.21278 -80.12737 28145 ft 333 kts 86°
2026-04-27 03:36 42.21153 -80.06477 28019 ft 335 kts 86°
2026-04-27 03:36 42.21090 -80.03343 27959 ft 335 kts 86°
2026-04-27 03:37 42.21026 -80.00202 27901 ft 334 kts 86°
2026-04-27 03:37 42.20960 -79.97091 27840 ft 333 kts 86°
2026-04-27 03:37 42.20895 -79.93966 27777 ft 332 kts 86°
2026-04-27 03:37 42.20829 -79.90855 27721 ft 332 kts 86°
2026-04-27 03:38 42.20761 -79.87750 27665 ft 331 kts 87°
2026-04-27 03:38 42.20693 -79.84652 27609 ft 331 kts 87°
2026-04-27 03:38 42.20624 -79.81547 27556 ft 330 kts 87°
2026-04-27 03:38 42.20555 -79.78447 27515 ft 332 kts 86°
2026-04-27 03:39 42.20483 -79.75337 27471 ft 333 kts 86°
2026-04-27 03:39 42.20412 -79.72261 27423 ft 333 kts 86°
2026-04-27 03:39 42.20338 -79.69083 27378 ft 334 kts 87°
2026-04-27 03:39 42.20264 -79.65996 27324 ft 334 kts 87°
2026-04-27 03:40 42.20189 -79.62869 27269 ft 333 kts 87°
2026-04-27 03:40 42.20115 -79.59750 27223 ft 333 kts 87°
2026-04-27 03:40 42.20039 -79.56626 27184 ft 333 kts 87°
2026-04-27 03:40 42.19961 -79.53504 27136 ft 333 kts 87°
2026-04-27 03:41 42.19884 -79.50391 27088 ft 333 kts 87°
2026-04-27 03:41 42.19805 -79.47274 27035 ft 332 kts 87°
2026-04-27 03:41 42.19727 -79.44156 26982 ft 332 kts 87°
2026-04-27 03:41 42.19647 -79.41042 26955 ft 332 kts 87°
2026-04-27 03:42 42.19565 -79.37942 26910 ft 332 kts 87°
2026-04-27 03:42 42.19484 -79.34826 26865 ft 332 kts 87°
2026-04-27 03:42 42.19401 -79.31724 26819 ft 331 kts 87°
2026-04-27 03:42 42.19317 -79.28622 26773 ft 331 kts 87°
2026-04-27 03:43 42.19234 -79.25514 26726 ft 331 kts 87°
2026-04-27 03:43 42.19147 -79.22412 26682 ft 331 kts 87°
2026-04-27 03:43 42.19062 -79.19311 26638 ft 331 kts 87°
2026-04-27 03:43 42.18975 -79.16169 26595 ft 332 kts 87°
2026-04-27 03:44 42.18864 -79.13087 26553 ft 334 kts 91°
2026-04-27 03:44 42.18343 -79.10009 26484 ft 340 kts 105°
2026-04-27 03:44 42.17575 -79.06991 26445 ft 340 kts 105°
2026-04-27 03:44 42.16825 -79.03970 26420 ft 341 kts 105°
2026-04-27 03:45 42.16081 -79.00951 26392 ft 341 kts 105°
2026-04-27 03:45 42.15321 -78.97908 26363 ft 341 kts 105°
2026-04-27 03:45 42.14562 -78.94886 26332 ft 341 kts 105°
2026-04-27 03:45 42.13795 -78.91814 26301 ft 342 kts 105°
2026-04-27 03:46 42.13045 -78.88824 26272 ft 342 kts 105°
2026-04-27 03:46 42.12282 -78.85786 26247 ft 342 kts 105°
2026-04-27 03:46 42.11521 -78.82755 26211 ft 342 kts 105°
2026-04-27 03:46 42.10759 -78.79726 26179 ft 341 kts 105°
2026-04-27 03:47 42.09995 -78.76699 26152 ft 341 kts 105°
2026-04-27 03:47 42.09233 -78.73674 26126 ft 342 kts 105°
2026-04-27 03:47 42.08468 -78.70645 26099 ft 342 kts 105°
2026-04-27 03:47 42.07703 -78.67614 26095 ft 341 kts 105°
2026-04-27 03:48 42.06937 -78.64592 26053 ft 341 kts 105°
2026-04-27 03:48 42.06172 -78.61574 26028 ft 341 kts 105°
2026-04-27 03:48 42.05405 -78.58553 25998 ft 341 kts 105°
2026-04-27 03:48 42.04641 -78.55543 25969 ft 340 kts 105°
2026-04-27 03:49 42.03876 -78.52540 25951 ft 339 kts 105°
2026-04-27 03:49 42.03111 -78.49538 25910 ft 339 kts 105°
2026-04-27 03:49 42.02347 -78.46541 25888 ft 338 kts 105°
2026-04-27 03:49 42.01585 -78.43557 25853 ft 338 kts 105°
2026-04-27 03:50 42.00820 -78.40575 25816 ft 338 kts 105°
2026-04-27 03:50 42.00055 -78.37584 25795 ft 339 kts 105°
2026-04-27 03:50 41.99285 -78.34580 25764 ft 340 kts 105°
2026-04-27 03:50 41.98513 -78.31573 25749 ft 340 kts 105°
2026-04-27 03:51 41.97740 -78.28564 25719 ft 341 kts 105°
2026-04-27 03:51 41.96964 -78.25546 25699 ft 342 kts 105°
2026-04-27 03:51 41.96184 -78.22529 25678 ft 341 kts 105°
2026-04-27 03:51 41.95408 -78.19519 25659 ft 340 kts 105°
2026-04-27 03:52 41.94636 -78.16525 25634 ft 339 kts 105°
2026-04-27 03:52 41.93864 -78.13536 25601 ft 338 kts 105°
2026-04-27 03:52 41.93090 -78.10557 25574 ft 338 kts 105°
2026-04-27 03:52 41.92317 -78.07577 25555 ft 338 kts 105°
2026-04-27 03:53 41.91544 -78.04594 25534 ft 339 kts 105°
2026-04-27 03:53 41.90776 -78.01639 25516 ft 340 kts 106°
2026-04-27 03:53 41.89984 -77.98602 25493 ft 341 kts 106°
2026-04-27 03:53 41.89203 -77.95605 25494 ft 341 kts 105°
2026-04-27 03:54 41.88419 -77.92605 25476 ft 339 kts 105°
2026-04-27 03:54 41.87652 -77.89667 25453 ft 338 kts 105°
2026-04-27 03:54 41.86877 -77.86697 25426 ft 338 kts 105°
2026-04-27 03:54 41.86098 -77.83722 25407 ft 338 kts 105°
2026-04-27 03:55 41.85317 -77.80743 25390 ft 338 kts 105°
2026-04-27 03:55 41.84526 -77.77729 25366 ft 338 kts 105°
2026-04-27 03:55 41.83755 -77.74795 25345 ft 338 kts 105°
2026-04-27 03:55 41.82961 -77.71784 25315 ft 338 kts 106°
2026-04-27 03:56 41.82187 -77.68850 25306 ft 338 kts 105°
2026-04-27 03:56 41.81404 -77.65877 25275 ft 338 kts 106°
2026-04-27 03:56 41.80618 -77.62908 25264 ft 338 kts 106°
2026-04-27 03:56 41.79831 -77.59937 25250 ft 338 kts 106°
2026-04-27 03:57 41.79044 -77.56963 25243 ft 338 kts 105°
2026-04-27 03:57 41.78263 -77.54017 25234 ft 328 kts 105°
2026-04-27 03:57 41.77533 -77.51308 25166 ft 290 kts 105°
2026-04-27 03:57 41.76888 -77.48899 25027 ft 261 kts 104°
2026-04-27 03:58 41.76310 -77.46704 24846 ft 242 kts 103°
2026-04-27 03:58 41.75763 -77.44637 24622 ft 229 kts 103°
2026-04-27 03:58 41.75234 -77.42653 24374 ft 223 kts 103°
2026-04-27 03:58 41.74695 -77.40590 24180 ft 249 kts 103°
2026-04-27 03:59 41.74092 -77.38303 24070 ft 270 kts 104°
2026-04-27 03:59 41.73439 -77.35876 23986 ft 284 kts 105°
2026-04-27 03:59 41.72756 -77.33339 23918 ft 295 kts 105°
2026-04-27 03:59 41.72057 -77.30721 23866 ft 303 kts 105°
2026-04-27 04:00 41.71573 -77.28912 23835 ft 309 kts 105°
2026-04-27 04:00 41.70847 -77.26205 23795 ft 317 kts 105°
2026-04-27 04:00 41.70092 -77.23398 23774 ft 324 kts 105°
2026-04-27 04:00 41.69325 -77.20549 23774 ft 328 kts 104°
2026-04-27 04:01 41.68546 -77.17653 23749 ft 332 kts 105°
2026-04-27 04:01 41.67750 -77.14703 23734 ft 334 kts 105°
2026-04-27 04:01 41.66958 -77.11773 23721 ft 336 kts 105°
2026-04-27 04:01 41.66176 -77.08874 23710 ft 337 kts 105°
2026-04-27 04:02 41.65376 -77.05912 23710 ft 339 kts 105°
2026-04-27 04:02 41.64562 -77.02907 23718 ft 340 kts 105°
2026-04-27 04:02 41.63759 -76.99946 23729 ft 339 kts 105°
2026-04-27 04:02 41.62966 -76.97023 23728 ft 338 kts 105°
2026-04-27 04:03 41.62165 -76.94071 23723 ft 338 kts 105°
2026-04-27 04:03 41.61362 -76.91124 23707 ft 338 kts 105°
2026-04-27 04:03 41.60559 -76.88174 23701 ft 337 kts 105°
2026-04-27 04:03 41.59758 -76.85237 23718 ft 336 kts 105°
2026-04-27 04:04 41.58957 -76.82305 23727 ft 335 kts 105°
2026-04-27 04:04 41.58159 -76.79390 23715 ft 334 kts 105°
2026-04-27 04:04 41.57358 -76.76459 23703 ft 336 kts 105°
2026-04-27 04:04 41.56557 -76.73535 23693 ft 337 kts 105°
2026-04-27 04:05 41.55754 -76.70605 23685 ft 337 kts 105°
2026-04-27 04:05 41.54944 -76.67656 23678 ft 338 kts 105°
2026-04-27 04:05 41.54132 -76.64708 23674 ft 338 kts 105°
2026-04-27 04:05 41.53322 -76.61761 23671 ft 339 kts 105°
2026-04-27 04:06 41.52509 -76.58811 23668 ft 338 kts 105°
2026-04-27 04:06 41.51699 -76.55881 23671 ft 337 kts 105°
2026-04-27 04:06 41.50890 -76.52948 23661 ft 336 kts 105°
2026-04-27 04:07 41.49278 -76.47125 23688 ft 334 kts 106°
2026-04-27 04:07 41.48474 -76.44222 23684 ft 334 kts 107°
2026-04-27 04:07 41.47664 -76.41308 23677 ft 336 kts 107°
2026-04-27 04:07 41.46849 -76.38378 23673 ft 336 kts 107°
2026-04-27 04:08 41.46037 -76.35456 23668 ft 337 kts 107°
2026-04-27 04:08 41.45225 -76.32533 23668 ft 337 kts 107°
2026-04-27 04:08 41.44405 -76.29596 23670 ft 338 kts 107°
2026-04-27 04:08 41.43586 -76.26660 23675 ft 338 kts 107°
2026-04-27 04:09 41.42765 -76.23722 23678 ft 338 kts 107°
2026-04-27 04:09 41.41944 -76.20784 23666 ft 338 kts 107°
2026-04-27 04:09 41.41122 -76.17859 23668 ft 337 kts 107°
2026-04-27 04:09 41.40303 -76.14945 23664 ft 335 kts 107°
2026-04-27 04:10 41.39489 -76.12043 23646 ft 334 kts 107°
2026-04-27 04:10 41.38679 -76.09151 23642 ft 333 kts 107°
2026-04-27 04:10 41.37864 -76.06257 23626 ft 335 kts 107°
2026-04-27 04:10 41.37040 -76.03338 23438 ft 340 kts 107°
2026-04-27 04:11 41.36212 -76.00402 23011 ft 338 kts 107°
2026-04-27 04:11 41.35389 -75.97487 22567 ft 336 kts 107°
2026-04-27 04:11 41.34567 -75.94579 22127 ft 334 kts 107°
2026-04-27 04:11 41.33746 -75.91682 21701 ft 336 kts 107°
2026-04-27 04:12 41.32922 -75.88770 21260 ft 337 kts 107°
2026-04-27 04:12 41.32092 -75.85839 20801 ft 338 kts 107°
2026-04-27 04:12 41.31255 -75.82889 20368 ft 343 kts 107°
2026-04-27 04:12 41.30411 -75.79925 19916 ft 344 kts 108°
2026-04-27 04:13 41.29558 -75.76936 19467 ft 345 kts 107°
2026-04-27 04:13 41.28712 -75.73967 19008 ft 343 kts 107°
2026-04-27 04:13 41.27869 -75.71005 18501 ft 343 kts 107°
2026-04-27 04:13 41.26987 -75.68038 17819 ft 343 kts 110°
2026-04-27 04:14 41.26015 -75.65155 17326 ft 342 kts 110°
2026-04-27 04:14 41.25049 -75.62263 16853 ft 342 kts 110°
2026-04-27 04:14 41.24094 -75.59389 16371 ft 337 kts 110°
2026-04-27 04:14 41.23152 -75.56565 15906 ft 333 kts 110°
2026-04-27 04:15 41.22215 -75.53767 15443 ft 330 kts 109°
2026-04-27 04:15 41.21289 -75.50998 14987 ft 327 kts 109°
2026-04-27 04:15 41.20371 -75.48253 14536 ft 324 kts 109°
2026-04-27 04:15 41.19455 -75.45524 14086 ft 321 kts 109°
2026-04-27 04:16 41.18553 -75.42838 13613 ft 317 kts 109°
2026-04-27 04:16 41.17665 -75.40194 13170 ft 311 kts 109°
2026-04-27 04:16 41.16787 -75.37584 12735 ft 307 kts 109°
2026-04-27 04:16 41.15921 -75.35012 12311 ft 305 kts 109°
2026-04-27 04:17 41.15059 -75.32452 11889 ft 302 kts 109°
2026-04-27 04:17 41.14202 -75.29910 11467 ft 300 kts 109°
2026-04-27 04:17 41.13355 -75.27401 11052 ft 297 kts 110°
2026-04-27 04:17 41.12516 -75.24918 10640 ft 295 kts 110°
2026-04-27 04:18 41.11678 -75.22437 10230 ft 293 kts 110°
2026-04-27 04:18 41.10849 -75.19990 9800 ft 290 kts 110°
2026-04-27 04:18 41.10027 -75.17565 9392 ft 286 kts 110°
2026-04-27 04:18 41.09217 -75.15170 8994 ft 283 kts 110°
2026-04-27 04:19 41.08414 -75.12804 8602 ft 280 kts 110°
2026-04-27 04:19 41.07621 -75.10467 8214 ft 276 kts 110°
2026-04-27 04:19 41.06835 -75.08162 7840 ft 273 kts 110°
2026-04-27 04:19 41.06062 -75.05883 7463 ft 269 kts 110°
2026-04-27 04:20 41.05303 -75.03659 7086 ft 260 kts 110°
2026-04-27 04:20 41.04581 -75.01551 6735 ft 241 kts 110°
2026-04-27 04:20 41.03916 -74.99601 6399 ft 225 kts 110°
2026-04-27 04:20 41.03283 -74.97743 6089 ft 219 kts 110°
2026-04-27 04:21 41.02663 -74.95918 5999 ft 216 kts 110°
2026-04-27 04:21 41.02238 -74.94032 5989 ft 214 kts 87°
2026-04-27 04:21 41.02645 -74.92177 5994 ft 210 kts 64°
2026-04-27 04:21 41.03146 -74.90346 5963 ft 214 kts 72°
2026-04-27 04:22 41.03471 -74.88426 5900 ft 214 kts 76°
2026-04-27 04:22 41.03758 -74.86488 5831 ft 215 kts 76°
2026-04-27 04:22 41.04071 -74.84568 5754 ft 213 kts 75°
2026-04-27 04:22 41.04388 -74.82654 5670 ft 212 kts 75°
2026-04-27 04:23 41.04703 -74.80749 5582 ft 212 kts 75°
2026-04-27 04:23 41.05014 -74.78839 5495 ft 212 kts 76°
2026-04-27 04:23 41.05325 -74.76939 5409 ft 212 kts 76°
2026-04-27 04:23 41.05637 -74.75024 5322 ft 212 kts 76°
2026-04-27 04:24 41.05950 -74.73117 5228 ft 212 kts 76°
2026-04-27 04:24 41.06261 -74.71205 5137 ft 212 kts 76°
2026-04-27 04:24 41.06572 -74.69298 5044 ft 212 kts 76°
2026-04-27 04:24 41.06883 -74.67392 4950 ft 211 kts 76°
2026-04-27 04:25 41.07191 -74.65492 4857 ft 211 kts 76°
2026-04-27 04:25 41.07501 -74.63582 4764 ft 211 kts 76°
2026-04-27 04:25 41.07811 -74.61676 4677 ft 213 kts 76°
2026-04-27 04:25 41.08123 -74.59755 4579 ft 214 kts 76°
2026-04-27 04:26 41.08433 -74.57828 4487 ft 213 kts 76°
2026-04-27 04:26 41.08745 -74.55908 4394 ft 213 kts 76°
2026-04-27 04:26 41.09056 -74.53984 4302 ft 214 kts 76°
2026-04-27 04:26 41.09366 -74.52057 4208 ft 214 kts 76°
2026-04-27 04:27 41.09676 -74.50129 4116 ft 214 kts 76°
2026-04-27 04:27 41.09986 -74.48198 4023 ft 214 kts 76°
2026-04-27 04:27 41.10292 -74.46291 3931 ft 214 kts 76°
2026-04-27 04:27 41.10606 -74.44336 3839 ft 214 kts 77°
2026-04-27 04:28 41.10915 -74.42412 3746 ft 211 kts 77°
2026-04-27 04:28 41.11211 -74.40566 3655 ft 206 kts 77°
2026-04-27 04:28 41.11513 -74.38687 3564 ft 205 kts 77°
2026-04-27 04:28 41.11804 -74.36841 3475 ft 204 kts 77°
2026-04-27 04:29 41.12094 -74.35024 3396 ft 203 kts 77°
2026-04-27 04:29 41.12390 -74.33178 3296 ft 203 kts 77°
2026-04-27 04:29 41.12683 -74.31340 3205 ft 204 kts 78°
2026-04-27 04:29 41.12975 -74.29507 3122 ft 203 kts 78°
2026-04-27 04:30 41.13262 -74.27700 3034 ft 203 kts 78°
2026-04-27 04:30 41.13551 -74.25873 2947 ft 203 kts 78°
2026-04-27 04:30 41.13830 -74.24008 2855 ft 203 kts 82°
2026-04-27 04:30 41.13717 -74.22159 2814 ft 198 kts 104°
2026-04-27 04:31 41.13185 -74.20542 2805 ft 193 kts 120°
2026-04-27 04:31 41.12507 -74.19000 2804 ft 196 kts 118°
2026-04-27 04:31 41.11837 -74.17394 2808 ft 200 kts 118°
2026-04-27 04:31 41.11155 -74.15783 2812 ft 201 kts 119°
2026-04-27 04:32 41.10466 -74.14168 2807 ft 202 kts 119°
2026-04-27 04:32 41.09707 -74.12581 2809 ft 201 kts 127°
2026-04-27 04:32 41.08841 -74.11151 2817 ft 202 kts 127°
2026-04-27 04:32 41.07961 -74.09674 2817 ft 202 kts 127°
2026-04-27 04:33 41.07094 -74.08200 2814 ft 202 kts 127°
2026-04-27 04:33 41.06228 -74.06730 2807 ft 202 kts 127°
2026-04-27 04:33 41.05363 -74.05264 2801 ft 202 kts 127°
2026-04-27 04:33 41.04495 -74.03800 2806 ft 202 kts 127°
2026-04-27 04:34 41.03627 -74.02330 2806 ft 202 kts 127°
2026-04-27 04:34 41.02772 -74.00884 2804 ft 202 kts 127°
2026-04-27 04:34 41.01903 -73.99422 2764 ft 203 kts 126°
2026-04-27 04:34 41.01029 -73.97941 2663 ft 206 kts 126°
2026-04-27 04:35 41.00120 -73.96509 2540 ft 199 kts 134°
2026-04-27 04:35 40.98978 -73.95525 2416 ft 195 kts 153°
2026-04-27 04:35 40.97681 -73.95061 2293 ft 193 kts 172°
2026-04-27 04:35 40.96350 -73.95148 2172 ft 192 kts 190°
2026-04-27 04:36 40.95104 -73.95777 2050 ft 192 kts 208°
2026-04-27 04:36 40.93978 -73.96707 1918 ft 190 kts 210°
2026-04-27 04:36 40.92811 -73.97617 1726 ft 193 kts 208°
2026-04-27 04:36 40.91642 -73.98518 1519 ft 194 kts 211°
2026-04-27 04:37 40.90588 -73.99438 1366 ft 162 kts 213°
2026-04-27 04:37 40.89752 -74.00214 1161 ft 134 kts 216°
2026-04-27 04:37 40.89126 -74.00882 1008 ft 102 kts 219°
2026-04-27 04:37 40.88609 -74.01455 779 ft 96 kts 220°
2026-04-27 04:38 40.88099 -74.02026 683 ft 102 kts 222°
2026-04-27 04:38 40.87619 -74.02681 636 ft 98 kts 230°
2026-04-27 04:38 40.87151 -74.03382 487 ft 104 kts 229°
2026-04-27 04:38 40.86683 -74.04049 329 ft 95 kts 230°
2026-04-27 04:39 40.86261 -74.04680 204 ft 90 kts 230°
2026-04-27 04:39 40.85853 -74.05286 70 ft 86 kts 230°
2026-04-27 04:39 40.85471 -74.05869 11 ft 80 kts 225°
2026-04-27 04:39 40.85135 -74.06337 17 ft 60 kts 212°
2026-04-27 04:40 40.84972 -74.06598 17 ft 21 kts 245°
2026-04-27 04:40 40.85008 -74.06691 19 ft 0 kts 19°
2026-04-27 04:40 40.85072 -74.06675 18 ft 21 kts 56°
2026-04-27 04:40 40.85178 -74.06521 19 ft 22 kts 34°
2026-04-27 04:41 40.85270 -74.06518 16 ft 19 kts 338°
2026-04-27 04:41 40.85295 -74.06508 15 ft 0 kts 191°